TimeCDT,TemperatureF,Dew PointF,Humidity,Sea Level PressureIn,VisibilityMPH,Wind Direction,Wind SpeedMPH,Gust SpeedMPH,PrecipitationIn,Events,Conditions,WindDirDegrees,DateUTC
12:52 AM,19.0,9.0,65,30.42,10.0,NNW,18.4,-,N/A,,Clear,330,2013-03-20 05:52:00
1:22 AM,19.4,10.4,68,30.36,10.0,NNW,13.8,-,N/A,,Mostly Cloudy,330,2013-03-20 06:22:00
1:52 AM,18.0,8.1,65,30.41,10.0,NNW,24.2,31.1,N/A,,Scattered Clouds,330,2013-03-20 06:52:00
2:52 AM,16.0,6.1,65,30.43,10.0,NNW,25.3,31.1,N/A,,Clear,330,2013-03-20 07:52:00
3:52 AM,15.1,5.0,64,30.42,10.0,NNW,23.0,28.8,N/A,,Clear,330,2013-03-20 08:52:00
4:52 AM,14.0,5.0,67,30.43,10.0,NW,19.6,25.3,N/A,,Clear,320,2013-03-20 09:52:00
5:52 AM,12.9,5.0,71,30.44,10.0,NW,15.0,24.2,N/A,,Clear,320,2013-03-20 10:52:00
6:52 AM,12.9,5.0,71,30.45,10.0,NW,17.3,-,N/A,,Clear,320,2013-03-20 11:52:00
7:52 AM,12.9,5.0,71,30.45,10.0,NW,15.0,-,N/A,,Clear,320,2013-03-20 12:52:00
8:52 AM,15.1,6.1,68,30.45,10.0,NW,16.1,-,N/A,,Clear,320,2013-03-20 13:52:00
9:52 AM,17.1,5.0,59,30.44,10.0,NNW,16.1,-,N/A,,Clear,330,2013-03-20 14:52:00
10:52 AM,19.9,6.1,55,30.44,10.0,NNW,13.8,18.4,N/A,,Clear,330,2013-03-20 15:52:00
11:52 AM,21.9,7.0,53,30.42,10.0,NW,16.1,24.2,N/A,,Clear,310,2013-03-20 16:52:00
12:52 PM,24.1,8.1,51,30.38,10.0,WNW,15.0,24.2,N/A,,Clear,300,2013-03-20 17:52:00
1:52 PM,27.0,10.0,49,30.36,10.0,WNW,16.1,24.2,N/A,,Clear,300,2013-03-20 18:52:00
2:52 PM,28.9,10.0,45,30.31,10.0,NW,15.0,20.7,N/A,,Clear,310,2013-03-20 19:52:00
3:52 PM,30.0,9.0,41,30.28,10.0,NNW,6.9,21.9,N/A,,Clear,340,2013-03-20 20:52:00
4:52 PM,30.9,10.0,42,30.24,10.0,NNW,11.5,-,N/A,,Clear,330,2013-03-20 21:52:00
5:52 PM,32.0,9.0,38,30.23,10.0,NNW,12.7,-,N/A,,Clear,340,2013-03-20 22:52:00
6:52 PM,30.0,10.9,45,30.22,10.0,NNW,9.2,-,N/A,,Clear,330,2013-03-20 23:52:00
7:52 PM,26.1,10.9,53,30.21,10.0,North,8.1,-,N/A,,Clear,350,2013-03-21 00:52:00
8:52 PM,25.0,9.0,51,30.20,10.0,NNE,5.8,-,N/A,,Clear,30,2013-03-21 01:52:00
9:52 PM,24.1,10.0,55,30.20,10.0,NNE,4.6,-,N/A,,Clear,30,2013-03-21 02:52:00
10:52 PM,21.9,10.0,60,30.19,10.0,NE,8.1,-,N/A,,Clear,50,2013-03-21 03:52:00
11:52 PM,19.9,12.0,71,30.19,10.0,ENE,5.8,-,N/A,,Clear,60,2013-03-21 04:52:00